Location: Prescott
(34.5400°N, 112.4680°W)
Time: 23:04:55
(UTC-07:00)

Amateur Radio Satellites - All Passes

Search period start: 19 November 2017 22:34
Search period end: 20 November 2017 22:34
Location: Prescott, 34.5400°N, 112.4680°W

Satellite Date Start Highest point End Downlink Frequencies (MHz)
Time Altitude Azimuth
AIST 2D 19 Nov 22:42:15 22:43:18 11° 93° (E) 22:44:21 435.315
SO-50 19 Nov 22:59:46 23:03:49 34° 305° (NW) 23:07:55 436.795
PRISM 19 Nov 23:05:52 23:10:02 83° 284° (WNW) 23:14:11 437.425
UNISAT 6 19 Nov 23:14:50 23:18:02 21° 290° (WNW) 23:21:14 437.425
TIGRISAT 19 Nov 23:19:40 23:22:49 20° 291° (WNW) 23:25:57 435.000
EO-79 19 Nov 23:22:18 23:24:04 12° 93° (E) 23:25:49 145.935-145.965
O/OREOS (USA 219) 19 Nov 23:24:43 23:28:34 26° 63° (ENE) 23:32:22 437.305
NANOSAT C BR1 19 Nov 23:26:40 23:28:20 12° 93° (E) 23:30:00 145.865
SRMSAT 19 Nov 23:29:56 23:30:54 10° 196° (SSW) 23:31:52 437.500
LO-87 19 Nov 23:32:39 23:35:56 32° 262° (W) 23:39:13 145.935 - 145.965
POLYITAN 1 19 Nov 23:36:06 23:39:04 19° 95° (E) 23:42:01 437.675
SPROUT 19 Nov 23:45:15 23:49:13 38° 73° (ENE) 23:53:12 437.525
ESTCUBE 1 19 Nov 23:45:17 23:49:31 43° 261° (W) 23:53:48 437.505/2401.250
RS-15 19 Nov 23:53:25 23:58:21 13° 353° (N) 00:03:14 29.354- 29.394
QB50P2 19 Nov 23:58:28 00:02:26 40° 99° (E) 00:06:22 145.880/145.840
NO-84 20 Nov 00:08:00 00:12:08 50° 232° (SW) 00:16:08 435.350 FM
VELOX 1 20 Nov 00:12:08 00:16:25 51° 74° (ENE) 00:20:44 145.980
AIST 2D 20 Nov 00:13:22 00:16:32 31° 286° (WNW) 00:19:41 435.315
PCSat 20 Nov 00:22:39 00:27:53 53° 111° (ESE) 00:33:09 145.827
DUCHIFAT 1 20 Nov 00:50:22 00:54:30 67° 285° (WNW) 00:58:37 145.980
EO-79 20 Nov 00:56:01 00:59:59 42° 286° (WNW) 01:03:55 145.935-145.965
NANOSAT C BR1 20 Nov 01:00:15 01:04:12 42° 286° (WNW) 01:08:08 145.865
DX 1 20 Nov 01:02:27 01:06:30 40° 73° (ENE) 01:10:37 434.975-435.025
O/OREOS (USA 219) 20 Nov 01:04:12 01:07:48 23° 258° (WSW) 01:11:22 437.305
POLYITAN 1 20 Nov 01:11:14 01:14:49 28° 289° (WNW) 01:18:23 437.675
SPROUT 20 Nov 01:22:53 01:25:13 14° 267° (W) 01:27:33 437.525
QB50P2 20 Nov 01:35:39 01:37:49 14° 293° (WNW) 01:39:59 145.880/145.840
50 SAT 20 Nov 01:45:04 01:48:06 38° 261° (W) 01:51:10 437.505
UKube-1 20 Nov 01:47:16 01:51:35 84° 75° (ENE) 01:55:56 .
BUGSAT 1 20 Nov 01:48:41 01:52:39 59° 285° (WNW) 01:56:35 437.445
VELOX 1 20 Nov 01:51:36 01:53:06 12° 268° (W) 01:54:36 145.980
Oscar 19 20 Nov 02:04:50 02:10:00 85° 102° (ESE) 02:15:11 437.125/150
PCSat 20 Nov 02:07:43 02:11:34 19° 308° (NW) 02:15:27 145.827
RS-15 20 Nov 02:09:26 02:17:55 21° 31° (NNE) 02:26:05 29.354- 29.394
BEESAT 20 Nov 02:11:15 02:14:37 20° 67° (ENE) 02:18:01 436.000
Gurwin Techsat 1B 20 Nov 02:18:56 02:24:17 81° 103° (ESE) 02:29:35 435.225
ITUPSAT 1 20 Nov 02:19:34 02:23:19 23° 68° (ENE) 02:27:05 437.325
DX 1 20 Nov 02:40:26 02:42:49 14° 266° (W) 02:45:14 434.975-435.025
MOZHAYETS 4 20 Nov 02:44:12 02:48:39 55° 75° (ENE) 02:53:07
CUBESAT XI-V 20 Nov 02:54:16 02:56:49 15° 66° (ENE) 02:59:20 437.345
BEESAT 3 20 Nov 02:57:45 03:01:40 63° 116° (ESE) 03:05:38 437.485
M-CUBED/EXP-1 PRIME 20 Nov 03:10:59 03:15:34 71° 106° (ESE) 03:20:12 437.505
AO-7 20 Nov 03:11:55 03:19:22 35° 99° (E) 03:26:46 .
ISS 20 Nov 03:27:47 03:29:34 14° 29° (NNE) 03:31:21 437.550
BEESAT 20 Nov 03:47:42 03:52:05 37° 261° (W) 03:56:30 436.000
ITAMSAT 1 20 Nov 03:54:27 03:59:32 50° 101° (E) 04:04:32 435.822/435.867
ITUPSAT 1 20 Nov 03:56:44 04:00:56 30° 262° (W) 04:05:09 437.325
Gurwin Techsat 1B 20 Nov 04:01:58 04:03:28 11° 298° (WNW) 04:04:58 435.225
BEESAT 2 20 Nov 04:05:55 04:09:54 79° 299° (WNW) 04:13:57 435.950
AO-85 20 Nov 04:16:48 04:20:27 43° 114° (ESE) 04:24:13 145.980
RS-15 20 Nov 04:21:17 04:33:05 70° 58° (ENE) 04:44:11 29.354- 29.394
nSIGHT-1 20 Nov 04:23:14 04:26:21 51° 40° (NE) 04:29:27 .
MOZHAYETS 4 20 Nov 04:24:45 04:26:04 11° 268° (W) 04:27:24
CUBESAT XI-V 20 Nov 04:29:20 04:33:44 45° 261° (W) 04:38:09 437.345
BEESAT 3 20 Nov 04:38:26 04:39:35 11° 313° (NW) 04:40:44 437.485
KKS-1 20 Nov 04:45:24 04:49:47 57° 74° (ENE) 04:54:11 437.445
M-CUBED/EXP-1 PRIME 20 Nov 04:47:57 04:49:21 11° 300° (WNW) 04:50:45 437.505
ISS 20 Nov 05:03:06 05:06:21 67° 225° (SW) 05:09:34 437.550
DOVE 4 20 Nov 05:03:59 05:08:54 43° 98° (E) 05:13:32 437.250
AO-7 20 Nov 05:04:19 05:12:08 47° 295° (WNW) 05:19:58 .
YUBILEINY 20 Nov 05:09:16 05:16:54 35° 86° (E) 05:24:34 435.215
STARS 20 Nov 05:13:23 05:17:35 44° 73° (ENE) 05:21:48 437.465
ITAMSAT 1 20 Nov 05:35:14 05:38:31 17° 295° (WNW) 05:41:47 435.822/435.867
KAITUO 1B 20 Nov 05:48:26 05:50:21 14° 94° (E) 05:52:18 145.475/437.950
XW-2D 20 Nov 05:58:59 06:02:18 28° 97° (E) 06:05:37 145.860 - 145.880
AO-85 20 Nov 05:59:02 06:01:04 14° 312° (NW) 06:03:08 145.980
nSIGHT-1 20 Nov 06:01:25 06:02:12 11° 234° (SW) 06:03:00 .
XW-2B 20 Nov 06:13:30 06:17:08 42° 99° (E) 06:20:46 145.730 - 145.750
CUTE 1.7 + AOD 2 20 Nov 06:19:54 06:20:08 10° 91° (E) 06:20:22 437.475
HO-68 20 Nov 06:24:02 06:29:09 21° 94° (E) 06:34:13 435.675
KKS-1 20 Nov 06:25:48 06:26:37 10° 268° (W) 06:27:25 437.445
STRAND 1 20 Nov 06:32:17 06:36:50 32° 70° (ENE) 06:41:23 437.568
NUDT-PHONESAT 20 Nov 06:33:40 06:37:18 53° 100° (E) 06:40:56 437.300
FO-29 20 Nov 06:34:01 06:35:19 11° 54° (NE) 06:36:39 435.910
RS-15 20 Nov 06:35:15 06:44:20 28° 258° (WSW) 06:53:08 29.354- 29.394
XW-2C 20 Nov 06:38:53 06:42:41 81° 286° (WNW) 06:46:30 145.795 - 145.815
LilacSat-2 20 Nov 06:39:22 06:43:12 73° 282° (WNW) 06:47:01 437.200
DOVE 4 20 Nov 06:42:35 06:46:07 19° 294° (WNW) 06:49:34 437.250
SEEDS 20 Nov 06:50:39 06:53:05 15° 93° (E) 06:55:31 437.485
XW-2F 20 Nov 06:50:46 06:54:30 60° 283° (WNW) 06:58:14 145.980 - 146.000
STARS 20 Nov 06:51:53 06:54:05 13° 267° (W) 06:56:17 437.465
CUTE-I 20 Nov 06:57:03 07:02:27 86° 284° (WNW) 07:07:47 437.470
CUBEBUG 2 20 Nov 07:01:21 07:04:13 18° 94° (E) 07:07:04 437.445
YUBILEINY 20 Nov 07:05:14 07:13:24 44° 283° (WNW) 07:21:41 435.215
KAITUO 1B 20 Nov 07:21:02 07:24:21 30° 287° (WNW) 07:27:42 145.475/437.950
SO-50 20 Nov 07:33:28 07:38:09 78° 61° (ENE) 07:42:52 436.795
XW-2D 20 Nov 07:33:54 07:36:12 16° 290° (WNW) 07:38:30 145.860 - 145.880
XW-2B 20 Nov 07:49:57 07:50:52 11° 293° (WNW) 07:51:48 145.730 - 145.750
CUTE 1.7 + AOD 2 20 Nov 07:52:02 07:56:13 53° 285° (WNW) 08:00:22 437.475
ZACube-1 20 Nov 07:53:13 07:56:19 20° 95° (E) 07:59:25 437.345
UWE-3 20 Nov 07:59:36 08:03:39 50° 100° (E) 08:07:40 435.000/436.395/437.385
HO-68 20 Nov 08:10:10 08:17:15 63° 289° (WNW) 08:24:16 435.675
STRAND 1 20 Nov 08:11:47 08:15:57 25° 264° (W) 08:20:09 437.568
FO-29 20 Nov 08:12:26 08:18:46 69° 73° (ENE) 08:25:59 435.910
XW-2A 20 Nov 08:13:21 08:16:43 80° 101° (E) 08:20:05 145.665 - 145.685
SEEDS 20 Nov 08:24:56 08:28:50 36° 287° (WNW) 08:32:45 437.485
UNISAT 6 20 Nov 08:33:49 08:36:45 17° 68° (ENE) 08:39:41 437.425
AAUSAT CUBESAT 2 20 Nov 08:34:50 08:39:00 69° 284° (WNW) 08:43:09 437.432
CUBEBUG 2 20 Nov 08:37:17 08:40:49 28° 289° (WNW) 08:44:21 437.445
TIGRISAT 20 Nov 08:38:25 08:41:25 17° 68° (ENE) 08:44:23 435.000
AO-73 20 Nov 08:44:03 08:48:12 78° 103° (ESE) 08:52:22 145.935
Oscar 11 20 Nov 09:01:41 09:06:02 82° 103° (ESE) 09:10:21 .
PCSat 20 Nov 09:14:40 09:18:47 22° 53° (NE) 09:22:54 145.827
DELFI C3 20 Nov 09:16:17 09:19:16 20° 95° (E) 09:22:14 145.870
ZACube-1 20 Nov 09:29:06 09:32:31 25° 289° (WNW) 09:35:56 437.345
FALCONSAT 3 20 Nov 09:35:07 09:38:12 25° 154° (SSE) 09:41:16 435.103
UWE-3 20 Nov 09:38:42 09:39:37 11° 294° (WNW) 09:40:30 435.000/436.395/437.385
PRISM 20 Nov 09:51:18 09:55:08 40° 73° (ENE) 09:59:01 437.425
FO-29 20 Nov 10:00:32 10:04:32 17° 272° (W) 10:08:50 435.910
UNISAT 6 20 Nov 10:08:50 10:13:08 39° 261° (W) 10:17:23 437.425
TIGRISAT 20 Nov 10:13:30 10:17:46 38° 261° (W) 10:22:00 435.000
Max Valier Satellite 20 Nov 10:34:07 10:37:40 51° 284° (WNW) 10:41:14 145.860
EO-88 20 Nov 10:34:42 10:38:22 78° 283° (WNW) 10:42:00 145.990 - 145.960
AIST 2D 20 Nov 10:43:27 10:46:44 43° 75° (ENE) 10:50:02 435.315
QB50P2 20 Nov 10:48:06 10:51:10 20° 69° (ENE) 10:54:15 145.880/145.840
DELFI C3 20 Nov 10:50:42 10:53:54 24° 289° (WNW) 10:57:07 145.870
PCSat 20 Nov 10:57:13 11:02:23 47° 249° (WSW) 11:07:31 145.827
LO-87 20 Nov 11:02:56 11:05:42 21° 96° (E) 11:08:27 145.935 - 145.965
FALCONSAT 3 20 Nov 11:13:21 11:17:02 79° 166° (SSE) 11:20:44 435.103
BEESAT 3 20 Nov 11:19:01 11:20:54 13° 49° (NE) 11:22:46 437.485
PRISM 20 Nov 11:28:44 11:30:32 13° 267° (W) 11:32:22 437.425
DUCHIFAT 1 20 Nov 11:38:05 11:42:11 52° 75° (ENE) 11:46:17 145.980
ESTCUBE 1 20 Nov 11:40:49 11:45:13 50° 100° (E) 11:49:37 437.505/2401.250
EO-79 20 Nov 11:44:04 11:48:19 85° 80° (E) 11:52:35 145.935-145.965
NANOSAT C BR1 20 Nov 11:47:58 11:52:12 83° 78° (ENE) 11:56:26 145.865
POLYITAN 1 20 Nov 11:59:12 12:03:24 62° 259° (WSW) 12:07:36 437.675
VELOX 1 20 Nov 12:07:23 12:09:21 13° 93° (E) 12:11:18 145.980
QB50P2 20 Nov 12:23:04 12:26:44 28° 263° (W) 12:30:24 145.880/145.840
BEESAT 2 20 Nov 12:27:18 12:30:20 20° 52° (NE) 12:33:18 435.950
BUGSAT 1 20 Nov 12:34:10 12:38:17 55° 75° (ENE) 12:42:22 437.445
LO-87 20 Nov 12:36:35 12:38:54 17° 290° (WNW) 12:41:12 145.935 - 145.965
AO-85 20 Nov 12:50:46 12:54:11 19° 51° (NE) 12:57:44 145.980
FALCONSAT 3 20 Nov 12:52:30 12:56:11 76° 3° (N) 12:59:53 435.103
BEESAT 3 20 Nov 12:54:55 12:58:41 47° 245° (WSW) 13:02:23 437.485
50 SAT 20 Nov 13:08:11 13:08:22 10° 94° (E) 13:08:33 437.505
SPROUT 20 Nov 13:09:34 13:13:47 65° 284° (WNW) 13:17:57 437.525
Oscar 19 20 Nov 13:18:03 13:23:10 86° 77° (ENE) 13:28:18 437.125/150
ESTCUBE 1 20 Nov 13:19:22 13:21:33 13° 294° (WNW) 13:23:42 437.505/2401.250
O/OREOS (USA 219) 20 Nov 13:32:41 13:37:11 60° 107° (ESE) 13:41:44 437.305
Gurwin Techsat 1B 20 Nov 13:36:22 13:41:41 90° 68° (ENE) 13:47:02 435.225
UKube-1 20 Nov 13:38:41 13:41:37 18° 95° (E) 13:44:33 .
VELOX 1 20 Nov 13:41:43 13:45:59 47° 286° (WNW) 13:50:14 145.980
M-CUBED/EXP-1 PRIME 20 Nov 13:53:51 13:57:06 40° 68° (ENE) 14:00:37 437.505
BEESAT 2 20 Nov 14:04:34 14:08:03 29° 247° (WSW) 14:11:27 435.950
AO-7 20 Nov 14:07:19 14:14:36 36° 63° (ENE) 14:21:55 .
JUGNU 20 Nov 14:19:43 14:21:17 11° 165° (SSE) 14:22:49 437.505
DX 1 20 Nov 14:29:40 14:34:01 64° 285° (WNW) 14:38:19 434.975-435.025
AO-85 20 Nov 14:30:07 14:34:47 49° 245° (WSW) 14:39:44 145.980
FALCONSAT 3 20 Nov 14:31:38 14:35:16 56° 198° (SSW) 14:38:54 435.103
50 SAT 20 Nov 14:37:43 14:40:30 27° 287° (WNW) 14:43:16 437.505
MOZHAYETS 4 20 Nov 14:43:42 14:46:40 17° 94° (E) 14:49:36
ITAMSAT 1 20 Nov 15:08:46 15:13:50 55° 73° (ENE) 15:18:57 435.822/435.867
UKube-1 20 Nov 15:13:49 15:17:39 32° 289° (WNW) 15:21:29 .
O/OREOS (USA 219) 20 Nov 15:15:08 15:16:59 12° 303° (WNW) 15:18:50 437.305
NO-84 20 Nov 15:19:28 15:23:01 88° 314° (NW) 15:26:55 435.350 FM
YUBILEINY 20 Nov 15:25:49 15:29:42 13° 64° (ENE) 15:33:34 435.215
BEESAT 20 Nov 15:50:43 15:55:28 72° 102° (ESE) 16:00:11 436.000
AO-7 20 Nov 15:59:17 16:07:06 45° 259° (W) 16:14:58 .
ITUPSAT 1 20 Nov 15:59:53 16:04:40 88° 104° (ESE) 16:09:25 437.325
DOVE 4 20 Nov 16:05:22 16:09:39 30° 70° (ENE) 16:14:07 437.250
JUGNU 20 Nov 16:05:45 16:09:32 18° 174° (S) 16:13:18 437.505
FALCONSAT 3 20 Nov 16:11:43 16:13:57 15° 211° (SSW) 16:16:11 435.103
MOZHAYETS 4 20 Nov 16:19:41 16:23:53 37° 288° (WNW) 16:28:05
CUBESAT XI-V 20 Nov 16:28:55 16:33:32 56° 100° (E) 16:38:09 437.345
RS-15 20 Nov 16:37:42 16:39:53 11° 95° (E) 16:42:03 29.354- 29.394
CUTE-I 20 Nov 16:39:07 16:41:13 12° 62° (ENE) 16:43:20 437.470
KKS-1 20 Nov 16:41:20 16:43:43 14° 93° (E) 16:46:05 437.445
ITAMSAT 1 20 Nov 16:50:41 16:53:34 15° 267° (W) 16:56:28 435.822/435.867
XW-2B 20 Nov 16:52:57 16:54:36 13° 68° (ENE) 16:56:15 145.730 - 145.750
HO-68 20 Nov 16:53:15 16:54:51 11° 55° (NE) 16:56:27 435.675
NO-84 20 Nov 16:59:10 17:00:57 13° 330° (NNW) 17:02:47 435.350 FM
NUDT-PHONESAT 20 Nov 17:10:32 17:12:27 14° 69° (ENE) 17:14:24 437.300
XW-2C 20 Nov 17:16:50 17:19:58 26° 72° (ENE) 17:23:07 145.795 - 145.815
LilacSat-2 20 Nov 17:17:50 17:21:06 29° 73° (ENE) 17:24:24 437.200
YUBILEINY 20 Nov 17:18:59 17:27:53 80° 83° (E) 17:36:42 435.215
XW-2F 20 Nov 17:27:54 17:31:16 33° 74° (ENE) 17:34:38 145.980 - 146.000
BEESAT 20 Nov 17:31:52 17:32:34 10° 297° (WNW) 17:33:15 436.000
DOVE 4 20 Nov 17:43:05 17:47:13 27° 265° (W) 17:51:33 437.250
SRMSAT 20 Nov 17:49:39 17:52:33 14° 168° (SSE) 17:55:27 437.500
JUGNU 20 Nov 17:54:01 17:57:49 18° 185° (S) 18:01:38 437.505
KAITUO 1B 20 Nov 17:56:36 18:00:13 64° 77° (ENE) 18:03:53 145.475/437.950
CUBEBUG 2 20 Nov 17:57:13 17:58:56 12° 67° (ENE) 18:00:39 437.445
CUBESAT XI-V 20 Nov 18:08:18 18:10:23 13° 294° (WNW) 18:12:27 437.345
XW-2D 20 Nov 18:09:56 18:13:34 51° 260° (W) 18:17:13 145.860 - 145.880
CUTE-I 20 Nov 18:15:12 18:20:33 75° 257° (WSW) 18:25:57 437.470
KKS-1 20 Nov 18:16:12 18:20:25 42° 287° (WNW) 18:24:35 437.445
XW-2B 20 Nov 18:25:01 18:28:25 33° 262° (W) 18:31:50 145.730 - 145.750
HO-68 20 Nov 18:34:08 18:41:15 69° 72° (ENE) 18:48:25 435.675
RS-15 20 Nov 18:37:55 18:49:56 65° 112° (ESE) 19:02:01 29.354- 29.394
CUTE 1.7 + AOD 2 20 Nov 18:40:38 18:44:45 64° 76° (ENE) 18:48:56 437.475
STARS 20 Nov 18:42:03 18:46:21 56° 286° (WNW) 18:50:37 437.465
XW-2A 20 Nov 18:42:18 18:44:00 14° 70° (ENE) 18:45:43 145.665 - 145.685
NUDT-PHONESAT 20 Nov 18:42:51 18:46:01 28° 263° (W) 18:49:12 437.300
ZACube-1 20 Nov 18:47:23 18:48:44 11° 67° (ENE) 18:50:04 437.345
STRAND 1 20 Nov 18:47:38 18:50:18 14° 93° (E) 18:52:58 437.568
XW-2C 20 Nov 18:51:53 18:54:07 15° 266° (W) 18:56:23 145.795 - 145.815
UWE-3 20 Nov 18:53:02 18:56:50 28° 72° (ENE) 19:00:32 435.000/436.395/437.385
LilacSat-2 20 Nov 18:53:26 18:55:24 14° 266° (W) 18:57:23 437.200
XW-2F 20 Nov 19:04:04 19:05:27 12° 267° (W) 19:06:50 145.980 - 146.000
SEEDS 20 Nov 19:12:14 19:16:23 88° 269° (W) 19:20:35 437.485
YUBILEINY 20 Nov 19:18:17 19:23:31 18° 280° (W) 19:28:46 435.215
AAUSAT CUBESAT 2 20 Nov 19:21:00 19:24:54 45° 74° (ENE) 19:28:51 437.432
FO-29 20 Nov 19:28:57 19:32:23 13° 87° (E) 19:35:44 435.910
CUBEBUG 2 20 Nov 19:30:29 19:35:03 57° 260° (W) 19:39:30 437.445
AO-73 20 Nov 19:35:50 19:39:49 37° 73° (ENE) 19:43:43 145.935
SRMSAT 20 Nov 19:36:56 19:40:59 19° 178° (S) 19:45:03 437.500
JUGNU 20 Nov 19:44:13 19:46:04 11° 194° (SSW) 19:47:55 437.505
Oscar 11 20 Nov 19:52:50 19:56:48 38° 73° (ENE) 20:00:47 .
ISS 20 Nov 20:04:53 20:07:17 19° 129° (SE) 20:09:42 437.550
XW-2A 20 Nov 20:13:46 20:16:28 23° 263° (W) 20:19:09 145.665 - 145.685
ZACube-1 20 Nov 20:20:16 20:24:32 53° 260° (W) 20:28:44 437.345
HO-68 20 Nov 20:24:46 20:29:26 18° 267° (W) 20:34:10 435.675
STRAND 1 20 Nov 20:24:46 20:29:46 54° 286° (WNW) 20:34:42 437.568
UWE-3 20 Nov 20:29:44 20:33:12 22° 264° (W) 20:36:37 435.000/436.395/437.385
RS-15 20 Nov 20:51:59 21:03:08 38° 314° (NW) 21:14:17 29.354- 29.394
nSIGHT-1 20 Nov 20:57:46 21:00:58 71° 319° (NW) 21:04:10 .
AAUSAT CUBESAT 2 20 Nov 20:59:17 21:00:32 11° 268° (W) 21:01:47 437.432
EO-88 20 Nov 21:09:03 21:11:58 23° 72° (ENE) 21:14:54 145.990 - 145.960
Max Valier Satellite 20 Nov 21:09:08 21:12:29 35° 74° (ENE) 21:15:50 145.860
FO-29 20 Nov 21:10:27 21:18:21 86° 104° (ESE) 21:25:40 435.910
AO-73 20 Nov 21:13:38 21:16:06 15° 266° (W) 21:18:34 145.935
SRMSAT 20 Nov 21:25:47 21:29:28 17° 188° (S) 21:33:09 437.500
Oscar 11 20 Nov 21:30:41 21:33:03 14° 267° (W) 21:35:25 .
DELFI C3 20 Nov 21:31:08 21:35:04 72° 259° (W) 21:39:03 145.870
ISS 20 Nov 21:40:38 21:43:35 31° 323° (NW) 21:46:33 437.550
SO-50 20 Nov 21:44:16 21:48:37 56° 116° (ESE) 21:53:01 436.795
NO-84 20 Nov 21:55:42 21:58:35 17° 34° (NNE) 22:01:27 435.350 FM
UNISAT 6 20 Nov 22:03:40 22:07:51 54° 100° (E) 22:12:00 437.425
TIGRISAT 20 Nov 22:08:08 22:12:19 55° 100° (E) 22:16:28 435.000
